Location: Grandview
(34.8900°N, 117.1058°W)
Time: 16:52:28
(UTC-08:00)

Hubble Space Telescope - Pass Details

Date: 12 October 2017
Orbit: 537 x 541 km, 28.5° (Epoch: 13 December)

Event Time Altitude Azimuth Distance (km) Brightness Sun altitude
Exits shadow 05:00:54 12° 172° (S) 1,663 3.3 -23.6°
Drops below altitude 10° 05:01:29 10° 165° (SSE) 1,782 3.5 -23.4°
Sets 05:04:32 0° 141° (SE) 2,671 4.8 -22.8°
